Location: Castelbiague
(43.0361°N, 0.9246°E)
Time: 13:54:56
(UTC+00:00)

CARTOSAT-1 - Pass Details

Date: 17 June 2021
Orbit: 616 x 619 km, 97.8° (Epoch: 04 August)

Event Time Altitude Azimuth Distance (km) Brightness Sun altitude
Exits shadow 21:27:33 22° 176° (S) 1,374 4.8 -15.2°
Maximum altitude 21:30:20 74° 257° (WSW) 649 3.7 -15.4°
Drops below altitude 10° 21:34:40 10° 344° (NNW) 1,993 7.3 -15.9°
Sets 21:36:53 0° 346° (NNW) 2,904 8.4 -16.1°
